Hourly Data Report for October 31, 2014

All times are specified in Local Standard Time (LST). Add 1 hour to adjust for Daylight Saving Time where and when it is observed.

CLYDE RIVER A
NUNAVUT

70°29'09.000" N
68°31'01.000" W
26.50 m
2400804
71090
YCY

Download Data

Hourly Data (October 2014)
Hourly Data Report for October 31, 2014
Temp Definition
°C
Dew Point Temp Definition
°C
Rel Hum Definition
%
Wind Dir Definition
10's deg

Wind Spd Definition
km/h
Visibility Definition
km
Stn Press Definition
kPa
Hmdx Definition


Wind Chill Definition


Weather Definition


TIME
00:00 Legend Double Dagger -6.9 -8.4 89 30 21 16.1 101.27   -14 Snow
01:00 Legend Double Dagger -6.5 -7.9 90 30 21 16.1 101.28   -14 Snow
02:00 Legend Double Dagger -5.2 -6.3 92 32 21 16.1 101.29   -12 Snow
03:00 Legend Double Dagger -4.7 -5.7 93 33 18 16.1 101.33   -11 Snow
04:00 Legend Double Dagger -4.3 -5.5 91 33 22 16.1 101.35   -11 Snow
05:00 Legend Double Dagger -4.2 -5.3 92 33 28 16.1 101.34   -12 Snow
06:00 Legend Double Dagger -3.8 -4.9 92 33 34 6.4 101.37   -12 Snow
07:00 Legend Double Dagger -3.9 -4.7 94 32 32 4.0 101.39   -12 Snow
08:00 Legend Double Dagger -3.8 -4.5 95 32 32 2.4 101.39   -12 Snow
09:00 Legend Double Dagger -3.7 -4.4 95 32 34 1.6 101.39   -12 Snow
10:00 Legend Double Dagger -3.7 -4.5 94 32 35 2.8 101.40   -12 Snow
11:00 Legend Double Dagger -3.8 -4.8 93 31 35 2.4 101.41   -12 Snow
12:00 Legend Double Dagger -4.0 -5.0 93 31 37 3.6 101.41   -12 Snow
13:00 Legend Double Dagger -4.0 -5.0 93 31 35 4.0 101.43   -12 Snow
14:00 Legend Double Dagger -4.0 -5.0 93 31 34 4.8 101.45   -12 Snow
15:00 Legend Double Dagger -3.6 -4.3 95 31 26 2.8 101.51   -11 Snow
16:00 Legend Double Dagger -3.6 -4.3 95 32 24 3.2 101.55   -10 Snow
17:00 Legend Double Dagger -3.9 -4.9 93 31 30 4.8 101.56   -12 Snow
18:00 Legend Double Dagger -3.5 -4.3 94 31 30 3.6 101.58   -11 Snow
19:00 Legend Double Dagger -3.1 -3.8 95 33 30 4.8 101.60   -11 Snow
20:00 Legend Double Dagger -3.3 -4.1 94 32 35 4.0 101.64   -11 Snow
21:00 Legend Double Dagger -3.7 -4.7 93 32 41 3.6 101.66   -12 Snow
22:00 Legend Double Dagger -3.9 -4.8 94 32 34 8.1 101.67   -12 Fog
23:00 Legend Double Dagger -4.1 -4.9 94 32 39 3.2 101.66   -13 Fog

Notes on Data Quality.

Legend

  • E = Estimated
  • M = Missing
  • NA = Not Available
  • ‡ = Partner data that is not subject to review by the National Climate Archives
Date modified: